RH
72 74 71 69 61 59 66 72 79 83 80 77 69 60 60 61 60 75 95 94 85 91 97 98 99 99 99 100 97 92 91 96 103 99 86 78 68 57 64 78 77 70 67 64 62 60 57 54 51 49 51 54 55 54 53 51 53 63 81 92 92 88 85 81 76 69 68 75 82 84 83 80 76 73 71 71 72 71 65 62 64 62 54 50 49 48 47
77 77 73 72 65 65 77 86 91 92 85 81 79 77 76 76 74 75 85 92 92 93 96 98 99 99 99 101 99 95 94 98 100 95 90 93 88 72 73 83 81 75 72 67 63 61 57 54 51 49 51 53 54 56 58 60 58 57 67 82 89 88 85 84 83 78 73 73 78 83 83 80 78 75 72 70 70 73 71 64 63 59 50 49 51 49 49
85 84 74 76 74 71 80 93 99 97 91 88 91 95 94 93 94 91 91 97 99 98 99 100 100 100 99 100 100 96 94 96 96 92 90 94 93 85 82 84 83 80 76 70 66 63 59 55 50 49 53 56 58 60 61 64 67 67 65 72 82 86 86 85 85 84 82 78 78 81 79 75 76 77 74 70 71 75 72 62 58 55 50 49 50 50 50
97 92 78 81 85 80 82 91 97 96 89 85 90 97 98 99 100 100 99 100 100 99 100 100 99 100 100 99 100 99 96 96 97 98 98 95 93 90 86 83 82 81 78 75 70 66 64 60 54 52 54 55 58 62 65 66 69 74 75 75 78 83 88 92 91 88 86 81 80 82 82 78 76 75 73 70 72 76 69 57 54 54 52 51 51 51 52
100 95 82 82 84 84 88 92 94 92 84 81 87 94 97 100 100 100 100 100 100 100 100 100 100 100 100 100 100 99 97 97 98 97 93 91 92 91 86 84 84 78 74 73 68 66 68 63 58 57 56 56 58 59 63 67 69 74 78 77 77 79 82 89 95 94 88 84 83 85 89 89 82 75 73 72 74 76 68 57 53 54 54 54 54 52 53
95 94 87 84 85 90 97 97 98 97 92 89 90 91 95 100 100 99 100 100 100 100 99 98 100 100 99 99 100 100 99 99 98 93 87 88 91 89 82 82 84 76 68 67 65 66 67 60 57 59 57 56 57 55 57 64 69 73 73 68 67 72 77 82 91 96 92 88 88 89 90 92 86 79 76 73 73 77 74 62 54 55 58 57 56 57 57
87 93 89 88 93 99 100 98 99 100 98 94 92 93 96 100 100 100 100 100 100 101 99 97 98 100 100 99 98 98 98 99 96 93 94 94 94 94 86 80 81 77 70 69 69 68 66 60 58 61 61 59 59 57 59 66 71 74 75 68 60 62 71 77 85 95 96 90 89 90 88 89 87 83 79 75 72 76 78 69 57 58 63 61 60 63 64
85 92 89 88 97 102 99 99 101 100 97 96 96 99 99 97 98 99 99 99 100 100 100 99 98 99 100 99 99 98 98 97 92 92 98 97 92 91 87 81 79 79 76 77 76 71 67 63 60 62 63 63 63 61 62 68 73 74 75 74 66 62 66 70 76 89 96 93 90 91 90 89 89 85 80 77 76 78 79 73 64 63 67 67 66 69 69
79 88 94 95 99 101 99 100 100 98 98 98 98 100 100 98 99 98 97 100 100 99 100 99 99 100 100 99 100 100 100 97 93 94 100 100 95 92 91 88 85 80 78 81 83 80 76 71 66 65 65 66 66 66 66 69 75 77 75 75 73 72 77 80 80 87 95 95 94 96 95 93 93 91 85 82 84 85 81 76 71 70 74 77 78 76 73
72 81 96 101 98 98 100 100 100 99 99 98 98 100 100 99 100 97 96 99 100 99 100 100 99 100 100 100 100 100 100 99 97 96 98 99 100 99 98 98 96 89 82 84 89 90 86 82 76 72 71 72 72 74 73 72 75 77 75 73 74 80 91 96 94 95 98 97 96 98 99 98 98 98 93 88 89 92 88 79 75 76 78 83 88 86 83
70 74 91 101 97 97 99 97 98 100 98 95 97 101 99 99 100 96 94 98 100 100 100 100 100 100 99 100 100 100 100 100 98 98 98 98 100 100 98 99 100 98 93 92 95 95 93 91 86 79 78 79 78 78 77 76 77 78 76 74 75 82 93 99 98 97 98 99 99 99 99 100 99 99 98 94 90 92 92 84 78 79 81 84 90 94 92
73 74 89 101 98 96 98 96 98 101 97 93 98 101 97 96 96 91 91 97 100 100 100 99 100 100 100 99 100 100 100 100 100 100 100 100 100 100 100 100 99 99 99 99 99 98 98 98 93 86 87 89 89 86 81 78 80 81 78 78 81 86 92 98 100 98 95 96 99 100 99 100 100 98 100 99 93 92 93 87 80 81 83 84 88 93 92
76 74 85 100 99 95 97 99 99 100 97 96 99 98 92 89 87 86 91 99 100 99 100 100 100 100 100 99 99 100 100 99 100 100 100 100 100 99 100 100 99 99 100 100 100 100 100 100 97 93 94 97 98 96 91 87 85 82 81 85 89 90 92 96 99 99 96 94 97 99 100 101 101 99 99 101 97 95 96 93 87 84 85 85 88 93 94
80 75 81 95 99 97 99 101 99 99 99 97 92 86 84 83 83 86 94 100 101 100 100 100 100 100 99 99 100 100 100 99 100 100 100 100 100 100 100 100 100 100 100 100 100 100 99 100 99 97 97 99 100 100 99 97 91 86 89 96 97 95 95 96 98 99 98 97 98 99 99 100 100 99 100 100 99 98 99 99 97 94 93 94 96 98 99
87 85 87 94 97 98 99 100 99 98 97 91 83 78 79 80 83 91 97 99 100 100 100 100 100 99 99 100 100 100 100 100 100 100 100 99 99 99 100 100 100 100 100 100 100 100 100 100 100 99 99 99 99 98 97 97 95 94 96 99 99 99 98 97 96 97 98 99 98 96 94 93 94 95 97 99 101 101 100 99 100 99 99 99 100 100 100
87 91 95 94 93 95 98 100 99 95 89 84 78 77 80 82 86 94 100 100 100 100 100 100 100 100 100 100 100 100 100 100 100 100 100 99 99 99 100 100 100 100 100 100 100 100 100 100 99 100 100 98 97 96 93 92 92 93 94 94 96 99 99 98 96 93 93 94 95 95 94 93 94 96 98 100 101 101 100 99 99 100 100 100 100 100 100
81 86 94 95 92 93 95 97 96 89 82 78 78 80 84 86 90 97 100 99 99 100 100 100 100 100 100 100 100 100 100 100 100 100 100 100 100 100 100 100 100 99 99 100 100 100 100 100 100 100 100 100 98 95 92 90 89 89 88 89 89 90 93 96 97 95 94 94 94 95 97 97 99 99 99 100 100 100 100 100 100 100 100 100 100 99 99
85 90 98 99 95 94 92 91 92 86 78 77 80 84 86 86 90 97 99 98 99 100 100 100 100 100 100 100 100 100 100 100 100 100 99 99 98 98 97 97 96 95 95 95 95 95 95 95 96 96 97 98 98 95 92 91 89 88 87 88 88 86 85 87 90 92 95 98 98 99 99 99 100 100 100 100 100 100 101 100 100 100 100 99 99 99 98
88 94 102 99 94 93 90 86 86 81 77 81 85 82 80 82 90 97 97 98 100 100 99 100 100 100 100 100 100 100 99 100 100 99 98 97 93 90 87 85 84 83 83 85 86 87 85 85 85 86 86 87 88 89 89 87 85 84 85 86 87 86 83 82 82 83 85 89 93 96 99 99 99 99 100 100 100 100 100 100 100 100 100 100 100 100 100
88 94 102 100 96 96 93 89 87 82 80 83 80 71 70 78 87 93 96 99 100 99 99 100 100 99 99 98 98 99 99 99 99 96 90 83 76 69 65 62 62 62 63 66 71 74 74 75 74 73 72 72 74 76 77 76 72 71 72 74 77 78 79 80 80 81 81 81 82 85 88 91 94 95 96 98 99 100 100 100 100 100 100 100 100 100 100
94 99 98 92 90 93 94 92 89 85 80 71 61 62 76 89 94 95 97 100 100 97 97 97 94 92 90 84 77 74 74 73 72 68 61 54 50 47 43 39 38 38 38 39 42 46 51 54 56 56 54 54 55 57 59 61 59 55 54 57 59 62 65 68 70 73 76 78 80 81 81 82 83 85 87 89 90 92 93 94 96 97 98 99 99 100 99
90 95 91 82 76 77 82 80 71 66 63 54 50 64 83 93 96 96 95 97 98 93 87 82 77 73 68 58 46 38 35 35 35 36 34 32 32 33 31 28 26 26 26 25 24 25 28 29 32 34 34 33 34 34 36 41 43 41 40 40 41 43 48 53 56 60 63 65 70 75 78 79 79 80 81 82 83 83 84 84 84 85 87 89 90 92 93
71 79 82 75 62 57 63 64 57 54 53 47 48 60 69 70 75 82 82 82 81 72 62 56 53 47 41 35 27 22 22 23 25 25 25 25 26 27 28 27 26 26 25 25 24 23 22 21 20 20 20 21 21 20 19 22 24 26 27 28 27 27 30 35 40 46 51 55 58 61 67 72 75 76 76 78 79 80 80 80 80 79 78 79 79 80 82
51 68 76 69 55 50 54 55 53 55 56 50 44 45 45 41 44 50 51 49 46 39 34 35 35 32 29 29 27 23 21 22 24 25 26 26 27 29 30 28 27 26 25 25 24 24 23 22 21 19 18 18 17 16 15 15 16 17 18 18 18 18 21 26 31 36 41 47 51 53 56 60 66 70 72 73 75 76 77 77 78 78 77 77 76 75 75
45 62 66 54 44 41 43 45 47 48 48 44 37 33 32 31 32 35 35 33 32 31 30 31 32 32 32 32 29 25 24 24 25 26 27 27 27 28 28 27 25 25 25 25 25 24 24 23 22 21 20 20 19 18 17 16 16 17 17 15 15 15 17 22 28 32 35 39 43 47 49 51 53 55 58 60 63 65 67 68 68 69 70 71 72 72 71
39 43 39 35 39 40 36 39 45 43 39 36 32 30 33 37 38 38 38 38 37 37 38 38 36 34 35 35 31 29 29 30 29 28 28 28 28 26 26 26 25 24 23 24 24 24 24 23 22 22 21 21 20 20 19 18 18 18 18 17 15 14 14 19 25 29 32 34 36 38 41 43 43 41 40 41 42 44 47 50 50 49 49 50 51 52 52
39 39 33 32 43 49 47 47 47 41 37 37 33 29 31 37 41 43 48 53 52 47 44 44 42 39 39 39 37 35 35 35 34 32 31 30 28 26 25 26 26 25 24 23 23 24 24 22 23 23 22 21 21 21 20 20 19 19 19 20 18 15 13 15 19 22 26 28 29 31 32 33 34 34 32 32 31 30 31 31 30 29 28 28 28 28 28
44 48 44 34 31 40 54 62 55 44 44 52 55 53 52 55 58 59 61 64 64 57 47 44 45 45 43 41 38 37 38 38 38 36 35 32 30 28 28 29 28 27 26 25 25 25 25 25 24 23 22 23 24 23 21 21 20 20 21 22 23 21 17 17 18 19 20 21 22 23 25 25 26 27 27 27 27 26 25 23 22 20 19 18 18 18 18
48 43 41 34 28 36 57 69 66 62 65 73 79 82 79 75 73 73 69 64 62 57 47 43 46 48 46 43 42 40 41 42 42 41 42 41 36 33 31 31 30 30 30 30 29 28 27 27 26 24 23 23 23 23 23 22 22 22 22 25 29 28 24 24 26 25 23 23 22 20 19 20 20 21 22 23 24 22 21 20 19 18 17 16 16 17 18
56 42 38 36 33 34 44 58 70 78 82 82 83 88 91 87 85 88 87 80 74 66 54 48 53 56 54 52 52 49 47 47 47 47 49 48 46 43 39 35 33 32 32 33 33 31 29 28 26 25 24 24 24 25 26 25 25 24 24 29 36 35 31 32 36 36 34 36 36 34 30 26 23 23 23 23 22 22 21 20 20 19 18 17 18 19 20
52 42 41 44 46 44 45 56 72 83 85 83 83 85 89 92 91 93 95 96 93 86 74 66 65 64 61 59 55 51 49 50 50 51 51 50 50 49 45 42 37 33 34 37 36 34 32 32 30 26 24 25 26 25 24 25 27 28 29 35 41 41 40 41 44 47 52 56 55 50 45 39 34 32 31 28 26 25 23 22 22 21 19 19 20 20 20
50 52 56 62 70 72 72 75 80 81 80 82 83 82 86 92 93 91 93 96 93 87 81 76 70 64 59 54 46 43 44 46 47 47 48 49 50 50 50 48 42 36 37 41 41 37 35 35 33 29 25 24 24 21 21 25 29 31 37 45 46 43 43 48 56 64 71 72 67 59 53 46 40 37 37 34 31 29 26 23 22 20 18 19 21 22 21
56 64 66 70 77 81 81 83 85 83 79 81 85 85 84 85 83 80 80 79 75 68 64 63 59 55 50 45 39 38 38 38 40 43 46 49 51 51 51 50 45 40 42 45 43 40 39 37 35 31 27 25 23 18 23 34 39 39 45 52 53 52 55 63 74 82 80 74 68 62 57 53 47 41 39 38 36 32 27 23 22 21 18 18 19 20 20
66 66 66 72 78 76 75 79 85 86 83 82 82 77 67 61 62 65 64 59 54 51 48 45 43 43 42 39 36 36 34 34 38 44 47 50 52 52 52 50 47 45 46 46 45 44 42 40 37 32 26 23 18 14 26 45 49 44 42 44 51 65 77 84 89 90 84 80 76 67 61 61 58 47 39 36 35 33 29 23 20 20 19 19 18 17 18
73 71 71 75 78 76 74 76 77 77 78 80 80 75 62 51 52 58 58 50 42 39 38 36 36 38 39 37 35 34 34 34 39 44 48 51 52 51 50 49 48 48 48 46 47 48 46 43 40 33 25 19 11 10 28 52 58 49 43 45 56 75 90 96 95 89 85 86 82 70 63 68 68 57 44 36 31 31 30 27 23 22 20 20 20 18 17
77 74 71 72 73 76 78 76 71 71 77 81 84 82 71 55 46 47 48 43 37 33 32 34 35 35 35 36 36 36 35 34 35 38 42 46 48 49 49 46 44 47 49 49 50 52 49 44 40 32 22 14 7 5 21 47 62 60 57 61 70 80 88 93 94 91 90 90 83 72 70 73 71 64 55 44 34 30 30 28 27 27 25 25 24 21 20
81 77 75 75 75 77 82 82 78 75 75 78 82 80 69 56 48 45 39 35 33 31 31 32 32 31 33 35 35 33 33 32 33 34 37 40 43 48 50 47 43 46 51 53 55 55 49 42 39 33 20 11 7 6 12 32 55 65 65 66 70 75 81 86 87 87 90 89 82 79 81 78 71 68 65 53 40 33 30 28 29 29 28 28 27 26 26
82 77 70 68 70 74 79 81 77 71 67 66 67 64 56 51 52 48 38 32 33 35 34 32 30 29 29 28 26 26 29 34 36 38 39 41 44 48 52 53 51 51 56 60 61 57 47 39 38 35 22 9 6 8 10 21 41 61 71 72 69 67 70 76 78 78 79 77 74 79 85 80 70 67 67 62 53 43 34 31 32 31 30 31 30 28 28
74 69 56 48 52 59 64 67 67 65 62 57 52 49 48 50 51 47 40 37 38 38 36 35 33 30 28 25 22 22 26 31 36 39 41 45 49 52 55 59 60 60 64 70 67 55 43 38 39 37 27 13 5 7 10 13 23 41 59 70 74 71 68 69 74 80 81 75 73 80 88 85 75 67 63 64 65 58 44 35 35 35 35 35 33 30 29
60 60 51 44 43 45 49 53 54 53 53 51 47 46 47 47 47 45 42 40 40 40 40 40 38 34 31 28 26 24 25 28 30 32 36 43 50 54 57 62 67 70 74 77 71 57 47 44 43 41 34 21 8 6 9 10 12 19 30 42 56 67 73 76 81 87 88 84 83 90 96 90 79 71 67 67 71 69 57 44 38 38 38 36 33 32 34
49 51 50 44 39 39 46 54 57 57 57 55 49 43 40 39 41 43 42 41 42 42 40 39 37 35 33 32 30 29 29 30 30 31 34 42 52 57 57 60 66 71 74 75 74 69 61 54 47 45 43 34 19 8 7 9 11 12 14 18 25 37 53 69 77 83 90 93 94 97 99 92 82 78 77 73 71 73 67 53 43 41 40 37 35 37 41
43 46 48 45 43 48 57 63 63 63 62 58 50 43 40 40 41 42 42 43 43 40 36 35 36 36 36 34 32 30 30 32 35 38 41 45 52 58 58 59 65 72 75 76 76 74 69 61 53 49 48 44 33 17 8 7 10 10 11 14 15 16 24 37 45 53 73 94 102 101 99 95 90 90 89 80 74 77 75 60 46 43 42 37 36 42 47
42 44 46 46 48 56 62 60 55 52 54 55 54 49 44 41 42 42 39 35 33 33 35 38 39 38 36 33 32 34 37 39 43 45 46 46 49 54 56 57 62 70 76 78 77 75 71 65 59 54 50 48 42 29 13 7 9 10 8 10 14 14 16 22 25 30 50 78 95 100 100 98 97 99 97 89 83 85 81 64 48 44 43 39 39 45 50
45 44 41 38 42 52 60 62 59 56 54 54 53 49 44 43 43 41 35 30 32 38 44 45 40 35 34 35 38 42 44 45 45 46 46 47 49 51 54 57 59 62 69 76 79 78 71 63 57 53 48 44 43 38 24 10 7 10 9 8 10 11 12 16 22 27 39 56 72 86 96 101 100 100 100 96 92 90 82 65 51 46 44 42 43 50 56
48 46 42 36 37 46 53 55 54 51 47 44 44 43 42 42 39 34 33 39 45 48 46 40 34 33 37 41 44 45 44 43 41 40 40 44 49 53 58 63 63 60 64 72 75 72 65 57 53 52 48 42 41 43 34 17 7 8 10 10 10 10 11 12 17 23 31 40 50 60 71 77 78 84 94 99 96 88 76 62 51 47 47 45 46 53 62
45 42 38 35 37 42 42 39 41 45 44 40 39 38 37 35 35 37 42 49 50 45 39 35 35 41 46 47 44 43 42 41 37 34 37 46 54 57 62 68 70 67 68 72 70 65 60 56 54 53 51 44 40 42 41 30 17 9 8 9 10 10 10 11 13 16 21 28 35 42 49 57 67 81 95 99 95 88 79 65 52 48 49 48 46 49 56
41 36 34 35 40 43 40 37 43 49 46 37 34 34 34 33 35 39 43 44 41 37 35 36 41 48 49 45 40 39 39 36 32 30 35 43 48 51 59 70 75 73 70 69 67 63 62 62 60 58 55 49 42 39 41 42 35 23 12 9 10 11 11 11 12 11 13 18 24 30 37 46 59 75 87 91 91 92 91 79 63 53 51 50 48 47 47
37 33 33 36 42 45 43 43 50 54 47 37 33 34 35 36 40 41 39 36 35 35 38 41 45 45 43 40 39 39 36 32 29 28 30 31 33 41 57 75 83 80 73 68 64 62 65 67 67 64 60 54 46 40 39 46 51 43 27 15 11 11 10 10 11 12 12 13 16 22 29 36 45 59 76 87 92 94 95 90 79 67 58 52 49 48 47
34 30 30 35 45 54 57 56 56 56 51 46 47 48 47 47 51 51 46 41 40 42 44 45 46 46 46 46 46 42 36 32 30 29 28 27 28 34 50 70 81 79 68 57 53 58 70 79 81 76 67 60 53 48 46 51 56 54 45 35 29 24 17 12 10 10 11 12 13 16 21 27 34 46 62 77 84 86 88 90 88 80 70 60 54 50 49
37 34 36 42 54 64 64 57 54 56 59 64 72 76 69 59 56 56 53 48 46 46 45 45 47 50 53 53 49 42 36 34 34 33 33 34 32 31 38 50 58 54 45 38 43 58 75 86 89 83 73 64 58 57 57 58 60 58 55 52 51 48 42 34 26 18 13 12 13 14 17 20 22 26 35 49 62 72 79 82 80 77 75 71 63 54 50
39 40 42 45 54 62 62 59 60 65 68 70 76 79 71 57 51 54 58 56 52 49 46 46 47 49 50 49 46 42 39 38 40 40 41 40 38 36 37 39 40 38 35 38 48 60 69 74 79 81 78 73 70 69 68 66 65 64 60 57 55 55 54 52 48 41 32 22 14 12 14 17 19 19 22 26 36 48 59 63 62 61 61 62 60 55 51
36 39 42 46 56 70 81 83 80 74 66 59 59 63 62 54 48 51 57 58 56 55 53 50 49 48 49 48 46 44 44 45 47 46 45 43 41 41 40 39 39 40 42 47 54 60 62 65 72 79 80 79 80 82 81 77 74 72 69 64 59 54 50 47 47 50 49 41 30 21 16 14 14 16 18 19 20 25 31 36 38 39 39 39 41 43 44
Wind_Speed
10 6 4 4 4 4 5 4 2 3 4 5 5 6 8 12 10 9 17 23 21 19 19 18 16 15 13 10 10 9 7 5 6 9 10 9 6 3 1 2 3 3 2 1 1 1 2 2 3 3 3 4 6 8 12 15 20 22 22 22 24 27 30 29 27 27 26 28 29 26 24 27 32 35 35 36 36 34 30 27 27 28 28 26 25 24 24
9 5 5 4 3 5 7 7 5 2 2 2 4 7 10 12 10 12 20 24 21 18 16 14 13 12 9 8 8 8 7 7 9 10 9 8 8 6 3 3 3 2 1 1 1 1 2 3 4 4 5 5 5 6 8 11 15 20 23 24 24 26 28 29 29 28 27 27 27 26 26 29 34 37 37 38 37 32 28 29 30 30 29 27 26 26 26
14 9 8 6 4 5 8 9 8 5 2 2 5 8 8 9 11 15 21 24 20 15 12 9 8 8 7 8 9 8 7 8 9 9 6 5 7 7 5 4 3 2 2 2 2 3 3 3 4 4 5 6 7 7 8 9 10 14 19 23 26 27 29 30 31 31 30 28 29 30 29 30 35 38 39 41 39 33 29 31 32 30 29 28 28 28 27
18 13 10 9 8 9 10 11 10 7 4 2 4 6 7 8 13 16 18 19 17 12 9 8 7 8 9 9 9 7 6 5 5 5 5 6 7 7 6 5 4 4 4 4 4 4 4 4 5 6 6 7 7 8 8 9 11 11 13 17 22 27 30 31 31 31 32 30 31 33 33 33 37 41 41 42 39 33 32 33 32 30 29 29 29 29 27
19 16 11 12 13 9 7 8 7 3 2 2 3 6 6 7 9 10 10 12 10 7 6 7 8 9 11 11 9 8 7 5 4 5 7 7 7 7 7 6 6 7 7 6 5 5 4 6 6 6 7 7 8 9 9 10 11 11 10 12 16 21 26 30 30 30 31 31 32 34 36 36 38 41 41 42 40 34 33 34 33 31 31 30 30 29 27
18 17 14 12 8 4 3 5 4 1 3 2 2 5 8 8 8 8 8 8 8 6 6 8 8 7 8 9 7 6 6 5 4 6 6 6 6 7 8 8 9 11 11 10 8 6 7 9 8 7 8 9 11 12 12 12 12 12 12 13 14 16 19 24 28 28 29 32 33 35 37 38 38 39 41 44 43 36 33 35 35 33 32 31 31 29 27
17 18 14 7 2 3 6 7 6 4 2 4 3 5 8 8 8 8 8 8 8 7 7 7 7 6 7 7 7 6 6 5 6 8 7 7 7 7 8 10 11 12 14 14 12 10 11 12 11 10 11 12 13 14 14 14 14 13 14 15 16 16 15 18 26 29 30 32 35 36 39 40 40 40 43 45 44 38 35 36 36 34 33 32 31 29 27
14 13 9 4 5 9 11 9 9 8 3 2 3 7 8 7 6 6 6 6 7 8 7 7 8 8 8 7 7 7 6 5 6 8 8 8 7 7 9 10 11 12 14 15 13 13 14 15 14 14 14 14 15 14 13 14 14 14 14 15 16 18 17 15 20 28 31 33 36 38 38 40 41 42 43 44 45 41 39 38 38 36 34 33 32 30 28
11 10 10 11 12 12 11 12 11 10 7 6 6 7 7 8 8 7 8 8 9 9 9 9 9 10 8 6 6 6 5 3 4 6 8 9 8 8 9 9 8 11 14 15 15 15 16 16 16 16 16 16 16 16 14 13 15 15 15 15 16 17 18 18 16 22 29 32 35 38 39 39 41 43 43 44 44 42 42 42 41 38 36 34 32 31 29
10 13 14 11 7 7 12 15 12 10 10 9 8 7 7 7 7 7 8 8 8 8 7 7 8 8 7 6 7 8 6 4 4 4 6 8 9 8 8 7 7 9 13 15 16 16 16 17 17 17 16 16 16 16 14 14 15 16 16 16 15 14 14 14 13 17 25 31 35 38 38 38 40 41 43 44 44 42 41 43 43 40 38 36 33 31 31
13 14 12 6 3 7 14 16 12 11 12 10 8 6 7 8 8 8 8 8 6 6 5 6 7 7 7 7 9 10 9 7 6 7 7 8 8 8 7 7 7 9 11 14 14 15 15 15 15 16 16 15 16 15 13 15 15 15 16 16 13 11 9 9 9 11 17 25 33 40 39 38 39 41 42 44 44 42 39 40 42 41 41 40 36 34 34
14 13 10 7 5 8 13 14 12 12 13 12 9 5 7 10 9 9 10 8 7 6 6 7 7 6 5 7 8 10 10 8 8 8 9 9 9 9 8 8 9 9 10 11 11 12 14 14 13 13 14 15 16 14 12 13 13 13 13 13 11 9 9 9 7 8 8 13 23 35 42 44 43 40 40 43 44 43 42 40 41 42 42 41 39 38 39
14 12 10 7 5 10 14 13 11 12 12 13 10 6 7 9 7 8 8 8 7 7 6 7 8 6 5 4 6 9 9 6 4 5 6 7 8 8 9 9 11 10 10 10 10 10 12 12 11 10 10 11 13 13 12 11 11 11 11 11 10 9 10 10 8 5 7 5 13 21 30 41 45 42 42 44 44 44 44 43 41 42 43 42 41 40 40
12 12 11 8 6 11 15 13 12 13 12 10 9 7 7 7 5 4 6 8 8 7 5 5 4 2 2 1 3 5 5 2 1 3 3 4 4 5 6 7 8 9 9 9 10 9 10 10 8 7 6 6 8 9 10 11 10 9 9 9 8 9 10 9 9 5 4 6 4 11 18 24 30 33 37 41 45 45 44 41 40 41 41 40 39 39 40
12 11 10 6 5 11 14 13 13 13 11 8 7 7 7 6 6 7 9 10 10 7 6 5 4 2 2 2 1 1 1 2 2 3 3 3 3 3 4 3 4 5 7 8 8 8 8 7 6 5 5 5 5 6 8 9 10 9 10 9 8 9 10 9 8 7 4 1 3 4 6 9 12 14 20 31 44 48 42 36 36 37 37 38 38 39 40
11 10 9 6 8 13 15 14 13 12 10 9 9 8 7 8 9 9 9 10 10 8 7 6 5 6 5 4 3 3 3 3 2 2 2 2 2 2 1 1 1 3 4 5 5 5 5 5 5 5 5 5 5 6 6 7 8 8 9 10 10 9 9 9 8 7 6 4 2 3 6 9 11 12 10 19 33 37 33 31 33 32 32 34 37 39 38
11 11 11 9 11 14 15 13 12 12 11 11 10 9 9 11 12 12 11 12 13 13 11 9 9 9 7 6 6 6 5 5 4 3 3 3 3 2 2 2 1 1 1 2 2 2 2 2 3 4 4 4 5 6 6 6 6 6 7 8 9 9 8 7 7 7 6 5 3 1 3 6 10 13 14 14 18 23 26 29 32 30 28 28 31 32 31
14 13 13 13 14 14 14 14 13 12 12 12 13 13 14 16 17 17 16 17 18 17 14 12 10 10 9 8 8 8 7 6 5 4 4 4 4 4 4 4 4 3 3 3 4 3 3 3 4 4 5 5 5 5 6 6 6 6 6 6 6 7 7 6 5 5 5 4 3 2 0 2 4 6 8 10 13 17 20 22 24 24 24 25 26 26 25
19 16 14 14 16 16 15 15 15 14 14 15 16 16 16 18 20 19 18 18 18 17 15 12 10 10 10 8 7 6 5 5 4 3 3 4 4 5 5 6 6 6 6 5 5 5 5 4 5 5 6 6 6 5 5 5 6 6 6 6 6 6 7 6 6 5 4 2 1 1 1 1 1 2 3 5 7 10 12 13 14 16 17 18 19 19 19
20 19 17 16 17 17 15 14 14 14 14 15 15 14 15 17 18 18 18 18 16 14 13 11 9 8 7 6 5 4 3 3 3 3 3 4 5 6 6 7 7 8 7 7 7 7 6 5 5 6 6 6 7 6 5 5 5 6 6 5 5 6 6 6 6 6 6 5 4 3 2 1 1 1 2 3 5 6 7 8 9 10 11 12 13 14 15
23 22 20 18 19 19 17 15 15 13 12 12 12 13 15 15 15 15 15 15 13 12 11 9 8 6 5 5 5 4 3 3 4 4 5 5 5 6 7 8 8 8 8 9 8 7 7 7 6 6 6 6 6 7 7 6 6 6 7 6 6 6 6 6 6 6 6 6 6 5 5 4 3 3 3 3 4 5 6 7 8 8 9 9 9 10 11
23 21 17 14 16 19 19 15 14 13 11 10 10 13 15 14 12 12 12 11 11 10 10 10 9 8 6 5 5 6 7 7 7 7 7 7 8 9 11 11 12 12 12 12 11 10 10 9 8 7 7 7 6 6 7 7 7 7 8 9 8 8 8 7 6 6 6 5 5 5 5 5 5 5 5 5 5 5 6 6 7 7 7 7 8 8 9
21 19 15 11 10 15 18 15 13 13 12 10 12 13 13 12 11 10 10 9 9 9 9 10 11 10 10 9 10 11 13 13 13 12 12 12 12 13 14 14 14 14 15 14 13 13 13 12 11 10 9 9 8 7 7 8 8 8 8 9 9 9 9 9 8 7 7 7 6 5 5 5 6 6 7 7 7 7 7 7 8 8 8 8 8 8 9
18 18 15 11 10 14 17 15 14 15 13 12 13 14 13 12 12 12 12 12 11 11 12 12 13 13 14 15 15 15 16 15 15 15 14 14 15 15 14 14 14 14 14 14 14 15 15 15 13 12 11 10 9 9 8 7 8 8 8 9 9 8 9 9 9 9 8 8 8 8 7 6 6 6 7 8 8 8 9 9 9 9 9 9 9 9 9
15 15 14 13 13 15 17 17 16 16 14 13 14 15 16 16 16 16 16 16 15 15 15 14 14 16 16 16 15 16 16 15 15 15 15 14 14 14 13 13 14 14 14 14 15 16 16 16 15 14 13 11 10 9 8 8 7 7 7 8 7 7 7 9 10 10 10 9 9 9 9 8 8 7 8 8 9 10 10 10 10 10 10 10 10 10 11
13 14 14 16 17 17 18 19 19 18 17 15 15 16 18 18 18 18 18 17 16 15 15 14 13 14 15 15 15 15 15 14 13 13 13 13 13 13 13 14 15 15 15 15 15 15 15 16 17 16 15 14 12 10 10 9 9 9 9 9 8 8 7 8 9 11 11 11 10 10 9 9 10 10 10 10 10 11 11 12 12 12 11 11 12 12 13
13 11 11 15 19 19 18 18 18 18 17 17 16 17 18 17 17 17 17 16 15 14 13 12 12 12 13 13 13 13 13 12 12 12 12 12 12 12 13 14 14 15 16 16 15 15 16 16 17 17 17 16 16 14 12 11 11 11 11 11 11 10 9 7 8 10 11 12 12 11 10 10 11 11 11 11 12 12 13 13 12 12 12 12 13 14 15
14 11 8 10 15 18 17 16 15 15 16 16 16 16 16 15 15 15 15 14 13 13 12 11 11 10 10 11 11 11 11 11 10 10 11 11 11 12 12 13 13 14 15 16 16 16 15 16 16 16 17 17 18 17 16 14 13 13 12 12 12 13 11 8 7 8 10 11 12 12 12 12 12 12 12 12 12 13 13 13 13 12 12 13 15 16 16
13 11 10 10 13 14 15 15 13 13 13 13 12 13 13 12 11 12 11 11 10 10 10 9 9 9 8 8 8 9 9 9 8 9 9 10 10 11 12 12 12 13 14 15 16 15 15 15 15 15 15 16 17 18 19 18 16 14 12 12 12 12 12 10 8 8 9 10 10 11 12 13 13 13 12 13 13 13 14 13 13 12 12 13 14 15 15
11 12 14 15 14 13 14 14 13 11 11 10 8 8 8 7 6 7 7 7 7 7 7 7 8 7 6 6 7 7 8 8 8 8 8 8 9 10 11 12 12 13 14 15 15 14 15 15 14 13 13 13 15 16 18 19 19 17 14 11 11 11 12 11 10 10 10 10 9 9 10 11 13 14 14 14 14 14 14 13 12 11 11 12 14 15 15
10 12 14 15 14 13 13 14 13 12 10 8 6 6 5 3 2 3 2 1 3 4 5 6 7 7 6 6 6 6 7 8 8 8 9 9 9 10 11 12 12 12 13 14 14 15 15 15 14 14 13 13 13 14 15 16 18 17 15 12 11 11 12 11 10 9 10 10 10 9 9 9 11 12 14 14 14 13 13 13 12 11 11 12 14 15 14
12 13 13 13 13 12 11 11 11 9 8 7 5 5 5 4 4 4 6 6 6 7 7 7 7 7 5 5 5 6 7 7 8 8 9 9 10 10 11 12 13 13 13 13 14 15 16 15 14 15 16 16 15 16 16 16 16 14 13 12 12 11 11 9 7 7 8 10 11 11 9 8 8 10 11 13 13 12 12 13 12 12 12 13 14 15 13
11 12 11 11 11 9 7 7 6 4 3 4 5 6 7 7 8 9 10 9 8 7 6 5 5 4 3 4 5 7 7 8 8 9 9 9 9 9 10 12 14 13 12 13 14 15 15 14 14 15 16 17 17 18 18 17 14 11 9 10 10 9 8 7 6 6 7 9 11 11 10 9 8 9 10 11 11 12 12 12 12 12 12 13 14 14 13
8 8 8 8 9 7 4 4 4 4 4 5 6 7 7 7 6 6 6 6 5 4 3 2 1 1 3 5 6 7 7 8 8 8 8 9 9 9 10 12 13 13 12 13 14 14 13 13 14 15 16 17 18 18 18 16 13 10 9 9 7 6 6 6 6 6 7 9 10 11 10 9 9 10 9 9 9 10 11 12 12 12 12 13 14 14 13
7 7 7 8 9 7 5 6 7 8 9 8 7 6 6 5 4 3 4 4 3 2 1 1 1 2 4 5 6 6 7 7 7 8 8 9 9 9 10 11 11 12 12 13 13 13 12 13 14 15 16 17 18 18 16 13 11 11 9 7 4 4 5 7 7 8 9 9 9 10 10 10 11 11 10 9 8 8 9 11 12 12 12 12 13 13 13
10 10 9 10 11 11 11 10 10 11 11 9 9 10 10 9 6 4 4 4 3 2 1 1 2 3 4 4 5 6 6 7 7 8 8 9 10 10 12 12 12 11 11 11 11 11 11 12 13 15 16 17 17 17 14 11 10 9 8 5 4 4 6 7 8 9 9 9 10 10 11 11 11 11 10 10 9 8 8 10 11 12 12 12 12 12 13
14 13 12 12 14 14 14 14 14 13 13 12 13 14 14 11 8 6 4 4 3 3 2 2 3 4 4 4 5 5 6 7 8 8 8 9 9 10 12 12 12 10 10 10 10 11 12 12 13 14 16 17 17 16 14 12 10 9 8 6 6 6 6 7 9 9 9 10 11 11 12 12 11 10 10 10 10 10 9 9 9 11 11 11 11 11 12
16 16 15 15 17 18 18 18 17 15 15 15 16 15 13 10 9 7 5 4 3 3 4 4 4 4 4 5 5 6 6 8 8 9 9 9 9 10 11 11 11 9 8 9 10 12 12 12 13 14 16 17 17 16 15 13 11 9 8 8 8 7 8 9 10 11 11 12 12 11 12 12 11 10 11 11 11 11 10 10 10 10 10 10 11 11 11
18 17 15 14 15 17 17 18 17 16 15 15 14 13 11 9 8 8 6 5 4 4 4 5 5 5 5 5 6 6 7 8 9 9 9 9 9 10 11 11 10 9 9 9 11 11 11 12 13 15 15 16 17 17 15 13 11 9 8 8 9 8 8 10 11 11 12 13 12 10 10 11 11 12 13 13 12 12 12 11 10 10 10 10 10 10 10
16 16 15 14 14 14 14 15 15 13 12 11 10 10 9 9 8 8 7 6 5 4 4 5 6 7 6 6 7 8 8 9 9 10 10 10 10 10 11 11 10 10 11 11 11 11 11 12 13 14 14 15 16 16 15 14 12 11 9 9 10 10 10 10 11 11 12 12 10 8 8 11 13 14 13 13 14 14 13 12 10 10 10 10 10 10 10
14 15 15 14 13 12 12 11 10 8 7 7 7 7 6 6 7 8 7 7 6 5 5 6 7 8 7 7 8 9 9 9 10 11 11 11 10 10 11 11 11 11 12 13 12 12 12 12 12 13 13 13 14 15 15 14 13 11 9 9 9 10 11 12 13 13 13 10 8 7 10 13 14 13 12 13 15 15 15 13 11 10 10 10 10 10 9
11 11 11 11 11 11 10 9 8 7 7 7 6 5 4 4 6 8 8 7 7 6 7 7 8 8 8 9 10 11 11 10 10 10 11 11 11 11 11 12 11 12 13 12 11 11 11 12 12 12 13 13 12 13 14 14 13 12 10 9 9 9 10 11 13 15 14 11 9 10 12 13 13 13 13 15 16 16 15 13 11 10 9 9 9 9 9
8 8 8 10 11 11 10 9 8 8 7 7 7 6 5 4 5 6 7 8 7 7 7 8 8 9 10 10 10 10 11 10 9 9 10 11 11 12 12 13 13 13 13 12 10 10 11 12 12 12 12 12 11 11 12 13 13 12 11 11 10 10 10 10 11 13 14 13 12 12 12 11 12 13 14 15 16 16 15 13 11 10 9 9 8 8 8
8 6 7 8 10 11 10 9 9 8 8 8 8 8 7 7 7 7 7 8 7 7 8 8 9 10 10 10 9 9 9 9 9 10 11 11 11 12 12 13 13 14 14 13 11 10 11 12 13 13 13 12 11 11 11 12 12 12 11 11 11 11 11 11 11 11 12 13 13 12 11 12 13 13 13 14 15 15 13 10 9 9 9 8 7 7 7
7 7 7 8 9 10 10 10 10 9 9 8 9 9 9 10 10 8 7 7 8 8 9 9 9 9 9 8 8 8 9 9 10 11 12 12 12 12 12 12 12 13 12 11 10 10 12 13 13 12 12 12 12 12 11 12 12 11 11 11 11 10 10 10 10 9 10 11 13 12 12 12 13 13 12 12 13 11 9 7 7 7 7 7 6 5 5
8 7 7 8 10 10 10 10 9 8 8 8 9 10 11 11 10 9 7 8 9 9 9 9 8 8 8 8 8 8 9 10 11 12 12 12 12 12 12 11 12 12 11 10 10 11 13 14 14 13 12 12 13 13 12 12 12 12 11 11 10 9 9 8 8 8 8 9 11 12 10 9 10 10 10 9 9 8 7 6 6 6 6 6 5 5 5
8 6 6 8 9 10 9 8 7 7 9 10 10 10 9 8 7 7 8 9 10 10 9 8 8 7 7 8 9 10 10 10 11 11 12 12 12 13 12 11 10 10 10 10 12 14 15 15 15 15 14 13 13 13 13 13 13 13 12 11 10 9 9 9 8 8 8 8 9 11 11 10 9 9 8 7 7 7 7 7 6 6 6 5 4 4 5
8 8 7 8 8 7 7 6 7 8 10 9 7 6 5 5 5 5 6 8 8 8 7 7 8 8 8 9 9 9 9 10 10 11 11 12 13 13 11 9 9 10 11 13 14 16 17 17 17 17 16 15 14 14 14 13 13 13 13 12 11 11 11 11 10 9 8 8 9 10 11 11 11 10 9 8 7 7 7 7 7 7 7 6 5 4 4
10 9 8 8 7 7 7 8 9 9 9 8 6 6 6 7 8 8 8 8 7 7 7 8 9 9 9 8 8 8 9 10 11 11 12 12 12 12 11 9 10 12 15 16 16 16 15 16 17 17 17 16 15 14 13 13 12 12 12 13 12 13 13 13 12 11 10 10 9 9 10 11 11 11 10 10 9 8 8 8 8 8 8 7 6 6 5
10 10 9 9 9 9 10 9 9 8 8 8 9 10 11 11 11 10 9 8 7 7 8 9 10 9 9 9 9 9 10 11 12 12 12 12 12 12 11 10 11 14 16 16 15 13 12 12 14 16 16 16 16 15 13 13 13 14 14 13 13 14 14 15 14 13 12 11 11 10 11 12 13 12 11 10 10 10 9 9 9 9 8 8 9 8 8
10 10 10 10 11 11 9 9 8 8 9 10 11 13 14 13 12 11 10 9 9 9 10 10 10 10 10 10 10 10 10 11 12 12 12 12 12 11 11 12 13 15 16 15 14 12 11 12 13 14 14 16 17 17 15 14 15 15 15 14 13 14 14 15 15 15 14 13 12 11 11 12 13 13 12 11 11 11 10 11 10 10 9 10 10 10 10
9 9 9 9 10 10 9 10 11 11 11 11 11 11 11 11 11 11 11 10 11 11 11 10 10 11 11 11 11 11 11 11 12 12 12 12 12 12 12 13 14 15 15 15 13 12 12 13 13 13 15 17 18 17 16 15 15 16 16 15 15 15 15 15 15 15 14 13 13 12 12 12 12 12 12 11 11 11 11 11 12 11 11 10 11 11 12
Wind_Direction
102 111 133 156 168 157 159 162 164 226 242 237 234 221 189 185 190 172 170 179 184 189 204 214 219 226 238 252 264 272 275 284 297 302 310 321 324 325 29 24 355 343 352 11 53 39 23 12 349 334 326 308 288 278 269 260 257 253 247 239 234 231 229 229 229 225 224 229 221 202 197 210 214 212 210 211 213 206 195 192 199 203 203 201 202 204 206
119 150 176 178 166 138 139 140 130 166 251 225 189 183 180 187 193 188 185 186 187 193 205 214 220 229 244 257 266 273 274 274 284 298 311 327 331 338 17 24 352 353 21 96 98 38 357 348 343 339 342 339 331 315 296 280 272 265 259 251 242 237 237 238 239 235 231 230 222 207 202 208 211 212 211 211 213 207 193 193 200 200 198 199 201 204 208
125 155 171 159 168 162 147 137 124 113 100 117 144 151 154 162 170 183 191 188 183 188 199 205 215 228 244 260 274 281 274 274 291 308 322 329 328 339 6 12 357 12 8 353 4 346 324 320 325 332 342 341 340 336 321 307 294 280 271 262 251 243 239 239 239 236 232 227 219 210 206 209 210 210 212 214 212 202 192 198 202 199 198 200 201 206 209
130 151 168 158 165 167 151 137 127 128 141 153 152 143 136 147 160 175 188 186 182 186 197 208 224 234 245 259 270 276 280 287 302 309 312 319 326 336 347 354 359 355 338 329 328 323 320 326 327 329 330 329 335 339 332 324 317 304 289 276 265 254 246 241 240 237 232 226 217 210 208 209 210 208 210 215 215 201 194 201 204 200 200 202 204 208 210
140 153 169 161 156 150 129 114 109 125 196 190 156 152 156 163 170 182 196 192 184 183 199 223 239 248 256 258 256 266 275 270 271 285 294 306 319 326 329 338 352 351 343 335 324 317 324 335 334 329 326 326 334 338 333 328 327 323 312 299 286 271 255 246 243 240 233 225 217 212 209 211 212 210 208 214 216 207 198 201 205 206 206 206 208 211 212
150 162 174 167 151 127 108 112 111 226 256 251 218 181 173 168 170 187 202 197 191 199 225 238 245 252 258 254 252 270 274 260 278 311 313 308 310 321 335 344 346 347 347 344 338 337 343 342 340 341 341 339 338 339 337 333 330 328 324 318 308 292 269 249 242 240 234 226 219 214 211 212 214 212 210 214 217 211 205 205 206 209 211 210 211 214 214
154 166 172 167 117 116 137 136 142 167 226 276 259 172 160 159 162 176 188 193 200 213 227 240 248 245 244 249 252 261 267 275 313 332 321 306 303 313 334 345 344 344 346 345 342 346 350 347 347 351 350 346 342 340 338 333 328 325 323 321 316 307 291 258 240 236 234 230 224 217 213 213 214 214 213 215 216 212 209 208 209 212 215 214 214 216 215
149 165 166 150 129 138 147 148 146 151 164 237 177 147 153 166 171 184 205 219 228 238 243 253 261 251 237 241 243 234 236 270 312 321 302 289 292 305 320 331 336 341 346 346 343 344 348 351 353 352 348 344 342 342 340 332 326 323 321 318 316 314 310 291 251 234 232 231 225 219 216 215 215 216 215 215 215 212 209 210 212 214 216 215 216 216 215
155 148 118 121 134 143 163 171 165 168 175 179 176 167 169 179 181 192 216 228 236 248 255 260 264 254 235 228 228 213 204 249 305 316 298 284 281 288 298 306 321 337 342 340 340 342 347 353 355 352 346 342 340 342 342 337 327 322 317 313 314 315 315 311 281 242 232 232 225 219 218 219 218 218 216 216 215 212 209 209 212 215 216 215 215 216 216
167 145 119 123 146 169 186 187 184 189 188 183 189 195 196 196 196 204 221 233 242 248 250 250 251 243 226 217 218 210 205 231 266 285 289 285 283 287 293 299 318 333 331 329 333 338 343 350 352 350 347 344 343 343 343 340 332 324 318 312 312 317 314 306 285 242 223 223 223 220 219 220 221 220 217 215 216 214 210 210 214 216 217 215 216 218 219
172 157 136 145 191 185 191 195 192 194 198 191 186 203 218 213 215 225 228 233 244 247 241 234 232 230 227 228 226 219 215 223 232 238 248 260 267 270 274 285 303 316 317 321 329 333 336 341 343 344 345 342 341 339 336 336 336 332 325 319 318 323 320 306 284 242 208 202 209 215 218 219 220 219 215 214 216 217 215 213 214 217 219 220 222 224 225
173 165 144 145 178 186 191 193 183 187 199 191 179 199 216 208 220 241 233 222 221 223 224 229 233 240 253 260 251 236 227 221 221 226 230 236 244 244 244 258 276 290 302 312 320 324 327 328 330 336 339 334 330 328 326 330 334 334 336 335 335 337 335 329 303 257 210 168 176 195 207 212 212 213 213 214 217 217 216 213 212 216 222 226 228 228 227
175 174 150 141 177 182 177 177 181 188 192 188 191 203 201 204 231 248 225 203 194 195 209 225 235 253 276 282 259 241 236 232 231 241 242 240 241 241 245 258 268 276 290 299 303 308 311 312 315 324 330 326 323 322 327 331 329 330 347 358 355 346 340 344 345 283 239 176 132 149 175 193 200 204 208 214 219 216 213 213 214 216 221 226 228 227 226
170 172 151 134 157 171 169 171 179 183 183 191 207 206 190 199 219 202 173 167 171 181 196 206 211 233 256 241 229 236 245 264 313 321 308 289 280 273 272 277 280 281 285 284 282 284 284 284 289 296 306 318 324 327 333 338 333 335 356 11 10 358 348 348 358 352 253 221 163 116 129 155 175 183 189 203 216 216 210 209 213 217 222 225 225 225 223
156 154 140 134 161 169 170 171 172 178 185 194 196 184 176 179 163 137 136 150 163 169 172 172 164 142 130 132 155 204 354 19 11 360 351 339 333 317 298 290 284 279 272 260 254 251 250 252 256 259 270 293 315 328 336 343 347 350 353 0 11 12 4 360 0 360 352 281 223 200 158 147 155 158 162 180 198 207 208 206 207 210 214 217 219 220 221
160 152 145 165 180 171 173 178 180 182 182 176 171 166 160 153 138 129 141 156 153 141 131 129 119 104 98 97 96 86 64 44 20 10 9 360 358 349 326 285 239 244 245 239 232 228 233 242 247 255 268 282 300 317 331 342 351 354 348 348 358 4 5 10 12 8 1 357 352 225 230 234 232 233 213 187 190 201 209 211 208 205 205 209 214 217 221
170 160 150 157 166 168 172 179 182 178 167 155 151 147 143 137 126 122 131 135 123 108 100 96 96 97 97 98 97 92 87 86 82 74 64 53 49 41 28 22 3 310 279 270 269 261 266 276 279 283 291 297 307 320 329 336 342 344 341 342 345 348 352 360 7 17 24 15 9 3 254 253 246 244 243 228 213 212 212 210 209 208 209 213 216 220 227
142 133 128 133 142 149 155 158 158 158 149 136 132 134 136 131 121 117 119 116 108 100 93 89 91 96 98 101 103 105 108 107 99 88 75 59 50 42 30 21 15 11 10 360 348 344 340 334 333 331 331 336 337 335 337 340 340 337 333 331 331 331 335 341 344 358 22 34 34 40 360 255 254 247 238 231 226 222 218 217 219 221 225 229 231 233 234
133 122 120 126 129 130 136 141 142 143 138 130 130 136 135 125 116 111 109 104 100 97 94 91 93 96 98 100 103 106 107 105 99 86 66 43 28 19 8 1 1 1 4 7 3 357 353 350 351 355 355 353 349 345 347 348 345 337 330 328 326 321 316 321 328 329 334 347 11 47 94 164 193 202 200 200 204 208 213 221 227 231 233 235 233 228 223
131 125 125 128 125 123 125 129 130 130 130 129 130 130 123 114 109 106 103 99 98 98 98 97 96 94 93 90 88 86 72 52 35 20 14 13 13 12 6 359 355 350 349 359 3 352 344 345 348 350 352 350 345 343 348 348 339 332 329 326 325 321 313 315 322 325 327 329 324 314 303 276 249 222 201 194 190 189 193 200 206 210 213 214 212 208 205
128 126 131 135 132 126 121 120 119 118 121 127 127 118 108 104 103 105 106 109 111 112 113 113 107 98 85 70 63 59 51 36 19 7 11 22 27 26 25 22 14 2 355 4 10 354 335 332 332 331 329 332 333 333 330 325 316 313 313 314 314 315 315 316 319 320 322 322 322 322 317 305 292 279 264 248 229 217 213 212 211 208 206 205 205 206 207
125 123 129 137 137 130 122 120 119 116 117 121 119 114 112 112 112 113 115 120 125 126 125 121 114 108 105 95 79 70 66 62 57 51 47 46 44 39 33 26 19 12 6 7 9 1 345 336 332 327 323 321 319 316 310 304 301 300 300 301 305 307 306 305 303 305 308 307 305 306 303 297 291 282 275 272 265 256 248 240 236 232 228 223 218 215 218
122 119 120 131 145 135 124 122 120 115 112 113 114 114 116 119 122 124 125 127 128 129 124 116 108 99 92 85 75 69 66 64 62 59 53 46 43 39 31 20 13 11 8 4 2 359 353 347 343 341 337 328 320 317 309 297 290 285 282 286 292 295 294 294 292 289 286 285 284 281 279 280 282 280 275 272 268 266 264 259 253 249 245 241 235 230 227
119 113 112 126 145 134 123 119 115 109 105 106 111 112 112 115 120 122 121 117 113 109 105 101 96 90 83 77 71 66 64 61 59 55 50 45 41 36 27 17 11 10 8 3 359 358 355 350 347 347 346 339 331 325 322 315 304 290 277 274 279 285 287 285 283 279 274 270 271 271 268 264 265 270 272 270 266 263 260 258 255 253 251 248 247 244 242
119 119 123 131 134 127 119 111 103 97 93 96 105 109 106 105 106 103 100 97 94 90 86 82 83 84 82 78 75 71 66 60 54 51 48 45 41 34 26 18 13 11 9 5 1 359 354 348 346 347 347 346 343 335 330 331 330 321 305 288 277 276 278 277 274 272 270 267 263 262 261 258 254 254 257 260 262 261 260 258 257 255 254 253 253 253 252
118 126 130 124 115 109 108 104 97 91 87 88 97 104 102 98 96 94 90 86 85 86 86 83 83 84 83 78 74 72 68 61 53 47 43 39 35 31 26 21 14 10 10 8 3 360 354 349 348 349 347 344 343 341 334 329 328 331 330 319 300 281 269 266 267 268 270 270 267 262 258 256 253 251 249 250 253 255 255 256 257 259 260 261 259 257 256
102 105 111 112 107 103 101 100 99 97 93 91 94 98 99 97 96 94 89 83 79 78 82 85 84 82 79 74 66 63 63 59 50 43 37 31 27 26 24 20 14 8 7 8 5 1 357 352 350 349 346 342 341 339 336 331 327 328 331 329 319 306 292 278 267 264 265 269 269 267 262 257 255 254 252 250 250 250 251 252 253 256 259 261 259 258 257
86 86 84 97 106 108 105 102 100 97 94 91 86 80 79 79 80 79 78 76 73 70 70 74 74 70 69 67 58 51 50 48 41 34 27 19 15 15 15 12 8 5 4 3 2 0 356 351 347 346 344 341 339 337 334 333 332 331 330 329 324 316 308 301 287 274 270 269 269 270 268 264 260 258 256 255 254 253 252 251 251 250 249 250 251 253 254
76 87 94 99 107 113 113 109 102 94 89 86 78 68 64 63 67 70 68 65 65 65 63 63 63 59 57 57 49 38 33 31 27 21 16 9 2 360 359 358 357 358 358 358 357 355 352 350 348 347 342 338 335 333 332 331 331 331 330 326 321 313 306 304 299 290 284 282 282 282 280 277 273 268 264 261 260 259 258 256 254 250 246 244 246 248 248
86 95 102 103 104 110 116 117 114 106 100 98 92 81 72 63 64 71 64 45 35 35 37 40 43 36 25 22 22 16 10 7 6 2 358 353 348 347 346 345 345 346 349 351 350 347 348 350 350 344 337 333 329 329 329 327 326 328 329 324 314 302 295 295 295 293 294 299 302 300 297 292 286 280 273 267 264 263 262 262 259 254 248 246 248 249 248
112 106 103 103 101 101 107 114 119 123 124 123 116 111 114 120 115 107 99 26 332 328 338 352 359 358 353 351 351 353 352 350 349 347 342 338 337 338 337 336 335 336 340 343 342 340 342 346 344 339 336 335 332 329 328 326 324 325 326 320 305 290 280 280 287 299 312 321 321 317 312 303 293 285 280 275 271 267 265 264 262 256 248 244 245 247 246
128 115 107 103 101 97 94 98 110 124 136 144 154 168 180 190 207 229 244 258 270 278 289 302 311 317 325 333 341 349 351 345 341 341 339 334 332 332 330 325 324 330 337 339 337 337 338 340 341 341 341 340 337 335 334 333 330 328 324 316 304 289 277 274 285 310 333 340 337 331 328 320 305 296 291 285 279 274 269 265 263 258 251 244 242 245 246
128 119 114 113 114 112 104 102 106 114 139 164 187 216 233 235 236 241 248 254 259 263 269 277 281 291 318 347 353 353 349 343 341 342 340 335 331 329 323 318 318 327 337 337 334 335 339 341 343 344 342 341 340 340 340 340 338 335 326 317 304 287 276 283 304 329 344 346 340 336 337 340 332 321 312 302 292 283 275 271 268 264 260 253 249 250 250
130 126 127 128 129 128 127 138 158 187 214 219 230 246 250 242 235 240 249 251 246 245 256 267 280 337 357 355 352 348 345 344 345 342 338 334 330 323 318 316 319 327 335 336 335 338 344 344 342 342 343 343 343 344 344 344 343 341 333 320 302 279 276 292 310 325 338 343 340 335 339 348 350 344 336 324 307 289 278 273 269 265 263 262 261 261 259
157 156 158 156 158 170 194 205 207 219 235 247 258 268 269 261 250 247 250 248 238 222 232 267 352 9 354 344 343 345 344 342 342 341 338 335 330 323 317 316 320 327 331 333 336 340 343 342 341 343 346 346 345 345 347 346 347 350 352 345 321 293 293 296 299 310 326 335 334 334 342 350 352 349 344 335 319 298 281 274 271 269 267 266 266 267 267
187 190 192 193 196 207 220 226 228 237 247 256 266 276 282 283 277 256 239 235 231 225 236 277 327 341 335 332 338 343 341 335 335 336 335 333 331 326 320 319 323 327 329 333 337 338 337 339 343 346 347 346 344 344 344 343 344 347 351 350 331 312 305 298 297 308 320 323 323 332 345 349 348 347 343 336 327 312 292 279 274 274 273 270 268 268 269
200 207 215 220 222 226 231 233 237 244 250 256 263 270 274 274 272 265 253 239 234 246 270 299 318 324 322 323 329 334 331 330 332 333 330 327 327 324 323 327 333 335 333 334 334 331 334 343 350 349 346 347 347 344 339 336 336 334 331 325 315 306 305 308 311 313 314 310 313 327 340 342 342 345 343 336 329 317 303 289 280 277 277 277 275 273 271
214 219 225 230 231 232 233 235 240 247 253 255 258 260 258 256 256 257 253 248 258 275 288 300 311 313 307 311 322 329 326 325 328 331 332 331 327 322 325 334 340 340 338 336 329 327 336 349 353 349 347 349 349 346 339 334 332 327 323 321 314 305 302 305 307 306 303 302 309 324 333 333 336 340 338 336 332 323 311 300 290 286 285 282 279 277 274
225 229 233 232 230 229 231 234 240 246 251 253 254 254 252 251 250 247 244 245 255 270 283 295 303 304 300 305 316 322 321 320 322 329 334 335 330 325 328 336 339 338 337 333 327 329 343 354 352 347 347 349 349 347 343 337 332 328 322 316 310 303 296 294 295 296 298 304 316 329 328 324 327 330 328 329 331 326 317 308 300 297 295 292 289 285 280
229 234 238 235 228 226 229 231 233 234 236 239 243 248 252 253 249 243 242 242 246 259 280 295 297 296 297 303 311 314 315 316 318 322 327 330 329 326 327 330 331 331 329 324 321 327 341 350 348 344 344 345 346 347 346 340 335 331 322 309 300 294 288 285 287 288 291 301 314 320 308 309 318 323 322 323 326 325 320 313 306 302 302 302 302 298 289
216 217 223 226 222 219 218 218 218 221 227 233 239 246 253 253 243 237 238 245 256 268 281 286 286 289 295 303 309 312 315 317 320 322 325 327 329 327 324 322 321 320 318 314 312 316 325 334 339 339 339 340 342 345 345 342 340 337 329 316 306 299 292 287 285 285 287 294 300 290 287 299 311 317 319 324 328 328 323 315 308 305 308 310 311 305 292
208 200 202 208 209 210 209 209 216 228 239 246 253 258 258 242 226 221 226 238 253 267 278 281 281 285 294 301 307 313 319 325 327 327 326 327 328 327 323 321 320 317 314 312 308 305 309 318 326 330 330 332 335 339 340 340 339 339 338 334 326 317 308 298 291 289 288 286 278 273 280 294 304 308 314 323 330 332 326 316 306 305 309 311 310 303 289
215 205 202 202 204 208 212 215 220 227 234 245 261 273 275 260 240 233 238 248 256 263 271 277 283 291 299 305 311 317 322 328 331 330 328 328 327 324 321 321 320 319 320 318 310 301 302 312 321 324 323 323 327 331 335 335 335 335 337 338 336 333 330 323 310 297 288 279 273 275 283 291 294 298 307 318 327 331 327 316 307 309 313 312 309 300 283
219 217 215 210 206 206 212 220 229 237 243 248 255 262 267 266 264 259 254 254 255 258 265 278 291 301 305 309 314 317 320 322 326 327 328 328 325 322 322 323 321 319 320 320 313 304 306 314 319 320 320 321 323 326 327 328 329 331 332 333 333 335 338 339 331 313 295 284 280 279 278 277 279 286 297 311 322 327 325 316 311 316 319 315 311 301 281
224 227 229 220 208 206 214 223 230 239 247 248 250 255 261 266 268 263 251 246 252 261 273 288 300 303 302 303 308 313 315 318 322 324 325 326 326 325 326 325 320 316 315 315 309 305 309 314 317 318 320 323 324 321 319 318 320 322 324 324 327 333 340 342 338 327 312 302 297 293 286 280 279 282 291 304 318 326 324 313 311 318 318 312 309 300 275
231 233 227 212 204 208 219 226 232 243 253 253 252 255 260 263 264 261 256 256 264 272 282 292 296 295 294 299 305 309 310 313 318 322 323 323 323 324 325 323 318 312 308 305 305 307 311 313 314 315 318 318 317 314 309 306 307 311 315 319 322 328 332 331 328 326 323 316 312 312 312 305 292 283 282 291 308 319 319 307 303 310 311 306 305 300 278
234 234 219 207 208 214 218 217 220 232 240 242 245 253 260 265 265 259 256 259 265 273 281 287 289 291 295 299 303 306 308 312 318 323 324 322 320 318 320 321 319 313 307 305 309 312 313 310 309 309 311 312 313 312 307 301 297 299 304 310 316 319 318 316 317 322 326 325 320 318 319 316 304 290 280 279 291 304 307 300 293 293 295 294 295 293 280
242 238 222 216 221 226 224 221 227 236 242 248 258 272 286 297 296 282 269 267 271 277 283 287 290 294 297 300 304 308 312 316 322 325 325 325 323 320 317 317 315 312 311 311 313 313 312 309 306 305 306 309 312 313 312 306 298 293 294 300 305 306 305 305 307 312 318 323 322 317 314 313 310 302 295 289 288 292 295 294 285 278 276 277 275 267 259
249 240 227 221 225 233 236 236 238 242 250 262 278 292 298 300 297 287 278 276 279 284 285 288 293 297 301 304 309 312 311 314 320 324 326 327 326 323 318 313 307 304 306 309 312 313 313 310 307 304 303 306 310 313 314 311 303 295 292 294 296 296 295 296 299 302 305 310 311 309 305 305 305 303 298 293 291 290 295 297 292 280 272 270 267 261 252
249 238 224 213 211 221 234 238 238 243 257 272 282 285 286 284 281 275 270 269 273 279 282 287 294 300 301 302 304 308 310 312 318 323 326 326 324 323 320 314 306 303 306 311 316 320 321 318 313 307 303 302 304 307 309 308 303 298 297 297 297 296 295 295 294 294 294 296 299 300 298 298 301 306 308 306 302 300 300 299 296 289 280 274 269 263 255
236 229 222 215 212 219 235 248 253 259 269 274 275 275 276 275 272 269 266 266 268 273 280 286 292 295 295 295 298 302 306 310 315 320 322 322 321 320 318 314 310 311 315 320 325 328 328 322 316 310 304 300 301 304 305 303 298 296 295 297 299 302 302 299 295 291 289 288 289 290 289 289 293 301 307 310 309 306 302 298 295 292 287 283 277 270 261
226 227 230 230 226 227 236 248 257 263 268 269 267 266 270 275 274 267 262 261 266 275 284 293 297 295 293 295 297 300 303 309 315 318 319 320 319 318 316 314 315 317 319 320 321 322 319 314 310 307 302 298 297 299 302 301 299 297 296 297 299 302 304 301 296 291 288 286 286 286 286 285 288 292 296 299 300 300 297 294 293 292 291 291 289 281 270